EFW6DG LCLK-EGKK

Flight info

Callsign EFW6DG
Flight time N/A
Altitude 34000
Route PHA DCT GENOS DCT TOSKA DCT VAXOS DCT KPC DCT AKINA DCT RIGRO DCT DISOR/N0454F360 DCT LONTA UL608 DOLEV DCT TIVNU DCT GORPA DCT DOL DCT EVAXI DCT NANIT DCT ERKIR L608 LIRSU DCT DENUT L610 TEBRA
Aircraft A320/M-SDE3FGHIRWY/LB1

Departure

Time 2026-04-27 15:46
Airport Larnaca International Airport (LCLK)

Arrival

Time N/A
Airport London Gatwick Airport (EGKK)
Time Latitude Longitude Altitude Speed Heading
2026-04-27 15:28 34.86838 33.60999 19 ft 0 kts 45°
2026-04-27 15:37 34.86831 33.60989 19 ft 2 kts 46°
2026-04-27 15:37 34.86812 33.60965 23 ft 4 kts 53°
2026-04-27 15:37 34.86797 33.60936 20 ft 4 kts 66°
2026-04-27 15:37 34.86790 33.60912 22 ft 1 kts 82°
2026-04-27 15:38 34.86790 33.60906 19 ft 0 kts 82°
2026-04-27 15:40 34.86789 33.60909 19 ft 1 kts 92°
2026-04-27 15:40 34.86750 33.60948 19 ft 14 kts 139°
2026-04-27 15:40 34.86658 33.61055 19 ft 17 kts 135°
2026-04-27 15:40 34.86669 33.61162 19 ft 14 kts 51°
2026-04-27 15:41 34.86746 33.61262 19 ft 17 kts 46°
2026-04-27 15:41 34.86840 33.61376 18 ft 20 kts 45°
2026-04-27 15:41 34.86943 33.61504 18 ft 22 kts 45°
2026-04-27 15:41 34.87056 33.61644 18 ft 24 kts 46°
2026-04-27 15:42 34.87173 33.61790 18 ft 24 kts 44°
2026-04-27 15:42 34.87297 33.61939 19 ft 26 kts 45°
2026-04-27 15:42 34.87425 33.62096 19 ft 27 kts 45°
2026-04-27 15:42 34.87559 33.62259 17 ft 28 kts 44°
2026-04-27 15:43 34.87700 33.62429 17 ft 29 kts 45°
2026-04-27 15:43 34.87844 33.62606 17 ft 30 kts 45°
2026-04-27 15:43 34.87996 33.62790 16 ft 31 kts 45°
2026-04-27 15:43 34.88149 33.62979 16 ft 32 kts 45°
2026-04-27 15:44 34.88309 33.63171 16 ft 33 kts 44°
2026-04-27 15:44 34.88447 33.63351 15 ft 12 kts 80°
2026-04-27 15:44 34.88404 33.63428 16 ft 9 kts 127°
2026-04-27 15:44 34.88402 33.63430 16 ft 0 kts 129°
2026-04-27 15:45 34.88387 33.63454 16 ft 7 kts 129°
2026-04-27 15:45 34.88337 33.63514 16 ft 13 kts 148°
2026-04-27 15:45 34.88261 33.63469 15 ft 14 kts 225°
2026-04-27 15:45 34.88106 33.63281 16 ft 62 kts 225°
2026-04-27 15:46 34.87651 33.62726 19 ft 118 kts 225°
2026-04-27 15:46 34.87201 33.62179 19 ft 148 kts 225°
2026-04-27 15:46 34.86417 33.61238 425 ft 156 kts 225°
2026-04-27 15:46 34.85625 33.60295 935 ft 163 kts 226°
2026-04-27 15:47 34.84813 33.59278 1442 ft 168 kts 229°
2026-04-27 15:47 34.83959 33.58142 1628 ft 189 kts 229°
2026-04-27 15:47 34.83075 33.56847 1772 ft 210 kts 242°
2026-04-27 15:47 34.82736 33.55060 1945 ft 230 kts 278°
2026-04-27 15:48 34.83412 33.53246 2275 ft 246 kts 314°
2026-04-27 15:48 34.84664 33.51719 2887 ft 255 kts 317°
2026-04-27 15:48 34.85975 33.50202 3671 ft 259 kts 318°
2026-04-27 15:49 34.88644 33.47155 5105 ft 268 kts 319°
2026-04-27 15:49 34.90015 33.45580 5824 ft 272 kts 319°
2026-04-27 15:49 34.91389 33.43986 6555 ft 274 kts 319°
2026-04-27 15:49 34.92771 33.42376 7278 ft 277 kts 318°
2026-04-27 15:50 34.94166 33.40742 8017 ft 279 kts 318°
2026-04-27 15:50 34.95567 33.39098 8747 ft 282 kts 318°
2026-04-27 15:50 34.96984 33.37435 9476 ft 284 kts 318°
2026-04-27 15:50 34.98419 33.35753 10145 ft 287 kts 318°
2026-04-27 15:51 34.99911 33.34010 10359 ft 308 kts 318°
2026-04-27 15:51 35.01509 33.32148 10480 ft 329 kts 318°
2026-04-27 15:51 35.03201 33.30170 10786 ft 341 kts 317°
2026-04-27 15:51 35.04950 33.28116 11330 ft 346 kts 317°
2026-04-27 15:52 35.06687 33.26072 11902 ft 349 kts 317°
2026-04-27 15:52 35.08444 33.24002 12477 ft 352 kts 317°
2026-04-27 15:52 35.10210 33.21921 13054 ft 355 kts 317°
2026-04-27 15:52 35.11997 33.19817 13621 ft 358 kts 317°
2026-04-27 15:53 35.13798 33.17696 14142 ft 361 kts 316°
2026-04-27 15:53 35.15606 33.15564 14640 ft 363 kts 317°
2026-04-27 15:53 35.17432 33.13409 15141 ft 366 kts 317°
2026-04-27 15:53 35.19265 33.11247 15630 ft 368 kts 317°
2026-04-27 15:54 35.21113 33.09063 16120 ft 370 kts 317°
2026-04-27 15:54 35.22972 33.06863 16613 ft 373 kts 317°
2026-04-27 15:54 35.24837 33.04655 17091 ft 375 kts 317°
2026-04-27 15:54 35.26723 33.02423 17576 ft 378 kts 317°
2026-04-27 15:55 35.28623 33.00174 18067 ft 381 kts 317°
2026-04-27 15:55 35.29943 32.98609 18376 ft 383 kts 317°
2026-04-27 15:55 35.32512 32.95561 18932 ft 386 kts 317°
2026-04-27 15:55 35.34452 32.93262 19373 ft 389 kts 317°
2026-04-27 15:56 35.36401 32.90955 19794 ft 392 kts 317°
2026-04-27 15:56 35.38368 32.88622 20214 ft 394 kts 316°
2026-04-27 15:56 35.40339 32.86277 20621 ft 397 kts 316°
2026-04-27 15:56 35.42328 32.83907 21028 ft 399 kts 316°
2026-04-27 15:57 35.44329 32.81522 21414 ft 402 kts 316°
2026-04-27 15:57 35.46334 32.79127 21789 ft 404 kts 316°
2026-04-27 15:57 35.48359 32.76710 22158 ft 407 kts 316°
2026-04-27 15:57 35.50398 32.74282 22525 ft 409 kts 316°
2026-04-27 15:58 35.52445 32.71847 22891 ft 412 kts 316°
2026-04-27 15:58 35.54508 32.69388 23262 ft 414 kts 316°
2026-04-27 15:58 35.56606 32.66876 23610 ft 416 kts 316°
2026-04-27 15:58 35.58678 32.64387 23925 ft 418 kts 316°
2026-04-27 15:59 35.60764 32.61881 24241 ft 420 kts 316°
2026-04-27 15:59 35.62853 32.59375 24567 ft 421 kts 316°
2026-04-27 15:59 35.64954 32.56852 24883 ft 423 kts 316°
2026-04-27 15:59 35.67062 32.54318 25184 ft 424 kts 316°
2026-04-27 16:00 35.69170 32.51786 25500 ft 425 kts 316°
2026-04-27 16:00 35.70572 32.50102 25706 ft 426 kts 316°
2026-04-27 16:00 35.73413 32.46689 26128 ft 428 kts 316°
2026-04-27 16:00 35.75547 32.44123 26456 ft 429 kts 315°
2026-04-27 16:01 35.77684 32.41546 26773 ft 430 kts 315°
2026-04-27 16:01 35.79820 32.38969 27105 ft 431 kts 315°
2026-04-27 16:01 35.81960 32.36383 27473 ft 431 kts 315°
2026-04-27 16:01 35.84130 32.33759 27955 ft 429 kts 315°
2026-04-27 16:02 35.86219 32.31231 28419 ft 426 kts 315°
2026-04-27 16:02 35.88331 32.28672 28902 ft 424 kts 315°
2026-04-27 16:02 35.90454 32.26102 29379 ft 422 kts 315°
2026-04-27 16:02 35.92545 32.23568 29858 ft 420 kts 315°
2026-04-27 16:03 35.94597 32.21081 30277 ft 418 kts 315°
2026-04-27 16:03 35.96688 32.18542 30653 ft 416 kts 315°
2026-04-27 16:03 35.98752 32.16031 31009 ft 416 kts 315°
2026-04-27 16:03 36.00810 32.13522 31348 ft 415 kts 315°
2026-04-27 16:04 36.02861 32.11026 31700 ft 415 kts 315°
2026-04-27 16:04 36.04916 32.08523 32035 ft 414 kts 315°
2026-04-27 16:04 36.06970 32.06022 32388 ft 414 kts 315°
2026-04-27 16:04 36.09012 32.03532 32737 ft 413 kts 315°
2026-04-27 16:05 36.11057 32.01037 33079 ft 412 kts 315°
2026-04-27 16:05 36.13092 31.98553 33427 ft 412 kts 315°
2026-04-27 16:05 36.15132 31.96060 33742 ft 412 kts 315°
2026-04-27 16:05 36.17172 31.93564 33926 ft 412 kts 315°
2026-04-27 16:06 36.19219 31.91056 33975 ft 418 kts 315°
2026-04-27 16:06 36.23423 31.85902 33964 ft 430 kts 315°
2026-04-27 16:07 36.27677 31.80670 33956 ft 432 kts 314°
2026-04-27 16:07 36.31944 31.75420 33982 ft 433 kts 315°
2026-04-27 16:08 36.35528 31.71013 33969 ft 433 kts 314°
2026-04-27 16:08 36.39799 31.65746 33992 ft 433 kts 314°
2026-04-27 16:09 36.44068 31.60459 33991 ft 434 kts 314°
2026-04-27 16:09 36.50584 31.52414 34004 ft 435 kts 314°
2026-04-27 16:10 36.59175 31.41742 34014 ft 435 kts 314°
2026-04-27 16:11 36.65615 31.33717 34011 ft 435 kts 314°
2026-04-27 16:12 36.72040 31.25686 34015 ft 436 kts 314°
2026-04-27 16:13 36.78461 31.17649 34008 ft 436 kts 314°
2026-04-27 16:13 36.84902 31.09566 34015 ft 436 kts 315°
2026-04-27 16:14 36.93457 30.98797 34023 ft 436 kts 315°
2026-04-27 16:15 37.02018 30.87984 34025 ft 436 kts 315°
2026-04-27 16:16 37.10537 30.77177 34026 ft 436 kts 315°